[[{"header":{"parameterUnit":"m.s-1","parameterCategory":2,"la1":30.2992,"la2":30.254,"lo1":-89.0895,"lo2":-89.0443,"dy":0.0025,"dx":0.0025,"nx":19,"ny":19,"refTime":"2026-05-13T03:00:00:Z","depth":"0","parameterNumber":2,"parameterNumberName":"U-component_of_CURRENTS"},"data":[0,0,0,0.2543,0.255,0.2834,0.2835,0.2974,0.2974,0,0,0,0,0,0,0,0,0,0,0,0.2419,0.2421,0.2543,0.2551,0.2834,0.2835,0.2973,0.2974,0,0,0,0,0,0,0,0,0,0,0,0.2418,0.242,0.2423,0.2552,0.2834,0.2835,0.2973,0.2809,0,0,0,0,0,0,0,0,0,0,0.256,0.2473,0.242,0.2423,0.2554,0.2833,0.2835,0.2804,0.2819,0.2789,0,0.2843,0,0.293,0.2981,0.2981,0,0,0,0.2528,0.246,0.2558,0.2423,0.2557,0.2833,0.2699,0.2814,0.2832,0.2808,0.2846,0.2854,0.2933,0.2981,0.2982,0.3026,0.3026,0,0,0.2512,0.2445,0.2547,0.257,0.264,0.2691,0.2709,0.2827,0.283,0.2847,0.2859,0.2935,0.2982,0.2983,0.3027,0.3026,0,0,0,0.2482,0.2433,0.2532,0.2561,0.2642,0.2699,0.272,0.2825,0.2865,0.2861,0.2937,0.2983,0.2984,0.3027,0.3027,0.3035,0,0,0,0.2472,0.242,0.2525,0.2484,0.2641,0.2767,0.2714,0.2856,0.2874,0.2936,0.2983,0.2985,0.3027,0.3027,0.3036,0.3014,0,0,0,0.2404,0.2412,0.2453,0.2481,0.2621,0.2769,0.2815,0.2863,0.292,0.2981,0.2985,0.3027,0.3027,0.3036,0.3015,0.3008,0,0,0,0.2313,0.2396,0.2451,0.2567,0.2619,0.2785,0.2816,0.2915,0.2965,0.2983,0.3027,0.3027,0.3036,0.3016,0.3008,0.2875,0.2862,0,0,0.2371,0.24,0.2474,0.2534,0.2687,0.2744,0.2853,0.2921,0.2939,0.2969,0.2973,0.3036,0.3015,0.3008,0.2845,0.2832,0,0,0,0.2464,0.2505,0.2564,0.267,0.2789,0.2844,0.293,0.2947,0.2984,0.2978,0.3022,0.3008,0.3004,0.2925,0.2914,0.2697,0.3024,0.3024,0.3024,0.2426,0.2522,0.2621,0.2731,0.2807,0.2905,0.294,0.2963,0.2994,0.2991,0.3007,0.2991,0.2906,0.2897,0.2675,0.301,0.301,0.301,0.301,0.2492,0.2544,0.2628,0.2745,0.2799,0.2863,0.2934,0.2953,0.2981,0.2995,0.2991,0.2926,0.2886,0.2653,0.3011,0.3011,0.301,0.301,0.301,0.2443,0.2474,0.2552,0.2672,0.2735,0.2822,0.2856,0.2919,0.2957,0.2968,0.2881,0.2879,0.2681,0.2976,0.2976,0.2976,0.2976,0.2975,0.2975,0.2342,0.2426,0.2473,0.2596,0.2639,0.2709,0.2807,0.2829,0.2842,0.2852,0.2852,0.2623,0.298,0.2989,0.2973,0.2974,0.2974,0.2974,0.2974,0.2286,0.2304,0.2382,0.2428,0.2532,0.2515,0.2644,0.2637,0.2682,0.265,0.2436,0.279,0.2768,0.2775,0.2778,0.2709,0.2709,0.2709,0.2709,0.22,0.2234,0.2286,0.2331,0.238,0.2419,0.2288,0.2295,0.2254,0.2165,0.2206,0.2153,0.2173,0.2115,0.2136,0.2126,0.1893,0.1891,0.189,0.2149,0.219,0.2179,0.225,0.2299,0.2262,0.2042,0.1842,0.1799,0.184,0.1926,0.1961,0.1873,0.1923,0.1829,0.1876,0.1859,0,0]},{"header":{"parameterUnit":"m.s-1","parameterCategory":2,"la1":30.2992,"la2":30.254,"lo1":-89.0895,"lo2":-89.0443,"dy":0.0025,"dx":0.0025,"nx":19,"ny":19,"refTime":"2026-05-13T03:00:00:Z","depth":"0","parameterNumber":3,"parameterNumberName":"V-component_of_CURRENTS"},"data":[0,0,0,-0.0304,-0.0307,-0.0462,-0.0463,-0.0583,-0.0583,0,0,0,0,0,0,0,0,0,0,0,-0.0245,-0.0246,-0.0304,-0.0307,-0.0462,-0.0463,-0.0582,-0.0583,0,0,0,0,0,0,0,0,0,0,0,-0.0245,-0.0246,-0.0246,-0.0308,-0.0462,-0.0463,-0.0582,-0.049,0,0,0,0,0,0,0,0,0,0,-0.0351,-0.0291,-0.0245,-0.0246,-0.0309,-0.0462,-0.0463,-0.0486,-0.0495,-0.0483,0,-0.0494,0,-0.0533,-0.0587,-0.0588,0,0,0,-0.0328,-0.0283,-0.0331,-0.0246,-0.031,-0.0462,-0.0398,-0.0492,-0.0502,-0.0495,-0.0496,-0.0501,-0.0535,-0.0588,-0.0588,-0.0535,-0.0534,0,0,-0.0319,-0.0271,-0.0324,-0.0337,-0.033,-0.0393,-0.0403,-0.05,-0.0495,-0.0496,-0.0505,-0.0537,-0.0588,-0.0589,-0.0536,-0.0535,0,0,0,-0.0281,-0.0265,-0.0313,-0.0331,-0.0361,-0.0397,-0.0408,-0.0492,-0.0509,-0.0506,-0.0538,-0.0589,-0.059,-0.0537,-0.0536,-0.0427,0,0,0,-0.0277,-0.0242,-0.0308,-0.0282,-0.0359,-0.0436,-0.0397,-0.0503,-0.0515,-0.0537,-0.0589,-0.059,-0.0539,-0.0536,-0.0433,-0.036,0,0,0,-0.0242,-0.0238,-0.0252,-0.0279,-0.0339,-0.0436,-0.0461,-0.0507,-0.0533,-0.0588,-0.059,-0.0539,-0.0537,-0.0437,-0.0369,-0.026,0,0,0,-0.0195,-0.0197,-0.025,-0.0263,-0.0337,-0.0394,-0.0461,-0.0512,-0.0553,-0.0589,-0.0538,-0.0536,-0.0439,-0.0374,-0.0266,-0.0189,-0.0153,0,0,-0.0172,-0.0193,-0.0204,-0.0255,-0.0286,-0.0375,-0.0375,-0.0459,-0.0504,-0.0508,-0.0508,-0.0431,-0.0369,-0.0262,-0.0042,-0.0011,0,0,0,-0.0181,-0.0183,-0.0202,-0.0235,-0.0293,-0.0303,-0.0396,-0.0402,-0.0407,-0.0513,-0.0409,-0.0373,-0.0309,-0.0275,-0.025,-0.0289,-0.0524,-0.0524,-0.0525,-0.0094,-0.0141,-0.0144,-0.0193,-0.0212,-0.0256,-0.0244,-0.0257,-0.0336,-0.0296,-0.027,-0.0091,-0.0053,-0.0033,-0.0075,-0.0267,-0.0267,-0.0266,-0.0266,-0.0052,-0.005,-0.0087,-0.0105,-0.0114,-0.0108,-0.0091,-0.0111,-0.0037,-0.0136,-0.008,-0.0144,0.0001,-0.0053,-0.0259,-0.026,-0.0261,-0.0262,-0.0262,0.001,0.0011,-0.0013,-0.0013,0.0017,0.0003,0.0114,0.0104,0.0089,0.0149,0.0182,0.018,0.0122,0.0172,0.0173,0.0173,0.0174,0.0175,0.0175,0.0093,0.0072,0.0099,0.009,0.0118,0.0178,0.0243,0.0308,0.0367,0.0342,0.0342,0.0199,0.0044,0.0013,0.0188,0.0186,0.0184,0.0183,0.0182,0.0177,0.0177,0.0221,0.0246,0.0306,0.0418,0.0455,0.0595,0.0647,0.07,0.052,0.0446,0.0428,0.0406,0.0385,0.0646,0.0646,0.0646,0.0646,0.0258,0.0251,0.0339,0.0402,0.049,0.0537,0.0741,0.0814,0.0794,0.0763,0.0688,0.0581,0.0564,0.0545,0.052,0.0497,0.0781,0.0781,0.0781,0.0328,0.0343,0.0429,0.0468,0.0564,0.0682,0.0854,0.0949,0.0887,0.0777,0.0628,0.0622,0.0444,0.042,0.0363,0.0331,0.0283,0,0]}],[{"header":{"parameterUnit":"m.s-1","parameterCategory":2,"la1":30.2992,"la2":30.254,"lo1":-89.0895,"lo2":-89.0443,"dy":0.0025,"dx":0.0025,"nx":19,"ny":19,"refTime":"2026-05-13T03:00:00:Z","depth":"2","parameterNumber":2,"parameterNumberName":"U-component_of_CURRENTS"},"data":[0,0,0,0.1872,0.1873,0.2004,0.2005,0.2243,0.2245,0,0,0,0,0,0,0,0,0,0,0,0.1815,0.1815,0.1871,0.1873,0.2004,0.2005,0.2242,0.2245,0,0,0,0,0,0,0,0,0,0,0,0.1815,0.1815,0.1814,0.1874,0.2004,0.2005,0.2242,0.2134,0,0,0,0,0,0,0,0,0,0,0.2001,0.1913,0.1815,0.1814,0.1874,0.2004,0.2006,0.2128,0.214,0.2193,0,0.2181,0,0.2211,0.2259,0.226,0,0,0,0.1906,0.1902,0.1947,0.1814,0.1875,0.2004,0.1955,0.2135,0.2149,0.221,0.2184,0.2193,0.2214,0.2261,0.2262,0.2477,0.2478,0,0,0.1899,0.1843,0.1936,0.1954,0.1869,0.195,0.1958,0.2143,0.2136,0.2185,0.2199,0.2218,0.2262,0.2264,0.2477,0.2477,0,0,0,0.1856,0.1837,0.1877,0.1944,0.1958,0.1953,0.1963,0.2128,0.2142,0.2201,0.2221,0.2263,0.2266,0.2476,0.2477,0.2447,0,0,0,0.1853,0.1811,0.1873,0.1842,0.1953,0.2031,0.1943,0.2129,0.2151,0.222,0.2263,0.2268,0.2475,0.2476,0.2446,0.2434,0,0,0,0.1816,0.1808,0.1812,0.1839,0.1883,0.2029,0.2055,0.2135,0.2163,0.226,0.2269,0.2474,0.2476,0.2446,0.2433,0.2423,0,0,0,0.1774,0.1787,0.1809,0.1834,0.1881,0.1989,0.2054,0.2151,0.223,0.2264,0.2475,0.2477,0.2445,0.2432,0.2423,0.2172,0.2153,0,0,0.1783,0.1786,0.1809,0.1833,0.1907,0.1975,0.2078,0.2204,0.228,0.2423,0.2428,0.2447,0.2433,0.2423,0.2275,0.2251,0,0,0,0.1809,0.181,0.184,0.1877,0.196,0.2043,0.2158,0.2223,0.237,0.2329,0.2491,0.2485,0.2478,0.2328,0.2312,0.2485,0.2485,0.2485,0.2485,0.1752,0.1807,0.1849,0.192,0.1986,0.2108,0.2199,0.2317,0.238,0.2445,0.2493,0.2512,0.2354,0.2338,0.2532,0.2532,0.2532,0.2532,0.2532,0.1761,0.1789,0.1852,0.1925,0.2014,0.211,0.2267,0.2329,0.2473,0.2511,0.2505,0.2346,0.2317,0.253,0.2531,0.2531,0.2531,0.2531,0.2531,0.1732,0.1754,0.1809,0.1899,0.1997,0.212,0.2225,0.2367,0.2451,0.2487,0.2322,0.2319,0.2463,0.2479,0.2479,0.2479,0.2479,0.2479,0.2479,0.1683,0.1734,0.1788,0.1878,0.193,0.2052,0.2216,0.2274,0.2274,0.228,0.2278,0.2494,0.2496,0.2462,0.2477,0.2477,0.2478,0.2478,0.2478,0.1643,0.1682,0.1739,0.1787,0.1886,0.1866,0.2042,0.201,0.2065,0.1984,0.2156,0.2164,0.2146,0.2157,0.2116,0.2042,0.2042,0.2041,0.2041,0.1611,0.1634,0.1697,0.1731,0.1769,0.179,0.1638,0.1603,0.1684,0.1693,0.1709,0.1652,0.1676,0.1632,0.1656,0.1606,0.1398,0.1397,0.1396,0.1583,0.1619,0.1629,0.1683,0.1695,0.164,0.1385,0.1165,0.1178,0.1379,0.1687,0.1981,0.1937,0.1959,0.1927,0.1951,0.1885,0,0]},{"header":{"parameterUnit":"m.s-1","parameterCategory":2,"la1":30.2992,"la2":30.254,"lo1":-89.0895,"lo2":-89.0443,"dy":0.0025,"dx":0.0025,"nx":19,"ny":19,"refTime":"2026-05-13T03:00:00:Z","depth":"2","parameterNumber":3,"parameterNumberName":"V-component_of_CURRENTS"},"data":[0,0,0,0.0293,0.0297,0.0459,0.046,0.052,0.052,0,0,0,0,0,0,0,0,0,0,0,0.0218,0.0219,0.0293,0.0298,0.0459,0.046,0.052,0.052,0,0,0,0,0,0,0,0,0,0,0,0.0217,0.0219,0.022,0.0298,0.0459,0.046,0.052,0.043,0,0,0,0,0,0,0,0,0,0,0.029,0.0253,0.0218,0.022,0.0299,0.0459,0.046,0.0427,0.0436,0.0409,0,0.0438,0,0.0493,0.0522,0.0522,0,0,0,0.0282,0.0247,0.029,0.022,0.0301,0.0459,0.0382,0.0433,0.0442,0.0419,0.044,0.0444,0.0494,0.0522,0.0522,0.0564,0.0565,0,0,0.0273,0.0245,0.0284,0.0296,0.0346,0.0377,0.0387,0.044,0.0447,0.044,0.0447,0.0495,0.0522,0.0523,0.0564,0.0564,0,0,0,0.0258,0.0238,0.0283,0.0292,0.0341,0.0382,0.0394,0.0445,0.046,0.0448,0.0496,0.0523,0.0523,0.0564,0.0564,0.0588,0,0,0,0.0252,0.0231,0.0279,0.0263,0.0341,0.0419,0.0397,0.0456,0.0465,0.0496,0.0523,0.0523,0.0564,0.0564,0.0587,0.0614,0,0,0,0.021,0.0227,0.0247,0.0261,0.0342,0.042,0.0439,0.046,0.0494,0.0522,0.0523,0.0563,0.0564,0.0586,0.0612,0.0665,0,0,0,0.0172,0.0225,0.0246,0.0324,0.034,0.0465,0.0439,0.0509,0.0537,0.0523,0.0564,0.0564,0.0585,0.0611,0.0663,0.0657,0.0666,0,0,0.022,0.023,0.0279,0.0303,0.043,0.0442,0.0563,0.057,0.053,0.0532,0.0535,0.0587,0.0612,0.0665,0.0688,0.0696,0,0,0,0.0284,0.0318,0.0361,0.044,0.0519,0.0599,0.0626,0.0615,0.0591,0.0555,0.0592,0.0607,0.064,0.0631,0.0638,0.0567,0.0567,0.0567,0.0567,0.0319,0.037,0.0462,0.0539,0.0612,0.0702,0.0723,0.0704,0.066,0.0631,0.0629,0.069,0.068,0.0685,0.0622,0.0622,0.0623,0.0623,0.0623,0.0408,0.0467,0.0528,0.0624,0.07,0.0784,0.0814,0.0772,0.0736,0.0674,0.0704,0.0659,0.0694,0.0625,0.0624,0.0624,0.0624,0.0624,0.0624,0.0433,0.0468,0.0516,0.0644,0.0745,0.0828,0.0874,0.0828,0.0771,0.0759,0.0766,0.0765,0.0723,0.0777,0.0777,0.0778,0.0778,0.0778,0.0778,0.0434,0.049,0.0562,0.0675,0.0753,0.0832,0.0886,0.088,0.0866,0.0811,0.0811,0.0743,0.0738,0.0733,0.0784,0.0783,0.0782,0.0782,0.0781,0.049,0.049,0.0606,0.0681,0.084,0.0922,0.0961,0.098,0.0973,0.0972,0.0846,0.0842,0.0844,0.0838,0.0835,0.091,0.091,0.091,0.091,0.0506,0.0522,0.0661,0.0781,0.0909,0.0973,0.103,0.0995,0.0947,0.0881,0.0882,0.0824,0.0819,0.0816,0.081,0.0805,0.0873,0.0873,0.0872,0.0556,0.0586,0.0688,0.0791,0.0948,0.1019,0.1035,0.0936,0.0836,0.0869,0.0858,0.0911,0.0825,0.0819,0.0811,0.0802,0.0793,0,0]}],[{"header":{"parameterUnit":"m.s-1","parameterCategory":2,"la1":30.2992,"la2":30.254,"lo1":-89.0895,"lo2":-89.0443,"dy":0.0025,"dx":0.0025,"nx":19,"ny":19,"refTime":"2026-05-13T03:00:00:Z","depth":"4","parameterNumber":2,"parameterNumberName":"U-component_of_CURRENTS"},"data":[0,0,0,0.0428,0.0425,0.0259,0.0259,0.0193,0.0193,0,0,0,0,0,0,0,0,0,0,0,0.0497,0.0497,0.0428,0.0424,0.026,0.0259,0.0193,0.0193,0,0,0,0,0,0,0,0,0,0,0,0.0498,0.0497,0.0496,0.0424,0.026,0.0259,0.0193,0.0278,0,0,0,0,0,0,0,0,0,0,0.0419,0.05,0.0497,0.0496,0.0423,0.026,0.0258,0.028,0.0273,0.0314,0,0.03,0,0.025,0.0193,0.0193,0,0,0,0.0411,0.0507,0.043,0.0496,0.0422,0.026,0.033,0.0275,0.0267,0.0305,0.0299,0.0295,0.0249,0.0193,0.0193,0.0247,0.0247,0,0,0.042,0.0496,0.0436,0.0425,0.0398,0.0335,0.0325,0.0268,0.0292,0.0298,0.0292,0.0248,0.0193,0.0193,0.0246,0.0247,0,0,0,0.0455,0.0504,0.0425,0.043,0.039,0.0331,0.0319,0.0294,0.0259,0.0291,0.0247,0.0193,0.0193,0.0246,0.0246,0.0379,0,0,0,0.046,0.0524,0.043,0.0478,0.0391,0.0329,0.0348,0.0263,0.0254,0.0247,0.0193,0.0193,0.0245,0.0246,0.0374,0.0425,0,0,0,0.0501,0.0529,0.0507,0.0482,0.041,0.0327,0.0288,0.0258,0.0229,0.0193,0.0193,0.0245,0.0246,0.037,0.0417,0.0465,0,0,0,0.0586,0.0558,0.051,0.0472,0.0412,0.032,0.0287,0.0259,0.0238,0.0193,0.0245,0.0246,0.0369,0.0412,0.0461,0.0328,0,0,0,0.0584,0.0562,0.0529,0.048,0.0392,0.034,0.0304,0.0281,0.0272,0.027,0.027,0.0376,0.0416,0.0464,0.0407,0,0,0,0,0.0547,0.0524,0.0486,0.0436,0.0365,0.0356,0.0302,0.031,0.0352,0.0263,0.0366,0.0387,0.0413,0.0321,0.0253,0.0253,0.0253,0.0252,0.0252,0.0612,0.0547,0.0503,0.0427,0.0405,0.0379,0.0401,0.0417,0.0383,0.045,0.0489,0.0605,0.0514,0.0482,0.0483,0.0484,0.0484,0.0484,0.0485,0.0586,0.0549,0.0528,0.0475,0.0483,0.0487,0.052,0.0548,0.0625,0.0584,0.0603,0.0459,0.0498,0.0495,0.0493,0.0492,0.0491,0.049,0.0489,0.0602,0.0582,0.0568,0.0539,0.0585,0.0586,0.0657,0.0707,0.0753,0.0815,0.0686,0.0685,0.068,0.0825,0.0825,0.0826,0.0826,0.0827,0.0827,0.0634,0.0606,0.0597,0.06,0.0618,0.0676,0.076,0.0794,0.0832,0.0814,0.0851,0.0719,0.0708,0.0698,0.0834,0.0833,0.0832,0.0831,0.0831,0.0603,0.0625,0.0587,0.0603,0.0635,0.0663,0.0764,0.0798,0.0842,0.0849,0.0797,0.0796,0.0728,0.0717,0.0704,0.0848,0.0847,0.0846,0,0.0604,0.0605,0.0563,0.0564,0.0574,0.0647,0.067,0.0716,0.0761,0.0739,0.0833,0.0771,0.077,0.0686,0.0674,0.0655,0,0,0,0.0574,0.0571,0.0537,0.0537,0.0545,0.0581,0.0661,0.0667,0.0762,0.0763,0.0816,0.0824,0.0788,0.0856,0.075,0.0736,0.0714,0,0]},{"header":{"parameterUnit":"m.s-1","parameterCategory":2,"la1":30.2992,"la2":30.254,"lo1":-89.0895,"lo2":-89.0443,"dy":0.0025,"dx":0.0025,"nx":19,"ny":19,"refTime":"2026-05-13T03:00:00:Z","depth":"4","parameterNumber":3,"parameterNumberName":"V-component_of_CURRENTS"},"data":[0,0,0,0.0402,0.0406,0.0569,0.0569,0.0673,0.0673,0,0,0,0,0,0,0,0,0,0,0,0.0339,0.034,0.0402,0.0406,0.0569,0.0569,0.0673,0.0673,0,0,0,0,0,0,0,0,0,0,0,0.0339,0.034,0.0341,0.0407,0.0569,0.057,0.0672,0.0576,0,0,0,0,0,0,0,0,0,0,0.0431,0.0388,0.034,0.0341,0.0408,0.0568,0.057,0.0573,0.0582,0.0568,0,0.0594,0,0.0636,0.0678,0.0678,0,0,0,0.0408,0.0381,0.0425,0.0342,0.0409,0.0568,0.0496,0.0579,0.0589,0.058,0.0596,0.0601,0.0638,0.0678,0.0678,0.0678,0.0678,0,0,0.0399,0.0368,0.0418,0.0431,0.045,0.0491,0.0501,0.0586,0.0594,0.0596,0.0604,0.0639,0.0678,0.0679,0.0679,0.0678,0,0,0,0.0372,0.0362,0.0406,0.0426,0.0464,0.0495,0.0507,0.059,0.0605,0.0606,0.0641,0.0679,0.068,0.0679,0.0679,0.0705,0,0,0,0.0367,0.0346,0.0402,0.0385,0.0463,0.0544,0.0508,0.0599,0.0611,0.064,0.0679,0.068,0.068,0.0679,0.0705,0.073,0,0,0,0.0332,0.0343,0.0361,0.0383,0.0454,0.0544,0.0566,0.0603,0.0631,0.0678,0.068,0.068,0.0679,0.0706,0.0729,0.0704,0,0,0,0.0295,0.0329,0.0361,0.0408,0.0452,0.0525,0.0566,0.0638,0.0679,0.0679,0.068,0.0679,0.0706,0.0729,0.0705,0.0664,0,0,0,0.0316,0.033,0.0358,0.0391,0.0457,0.0502,0.0547,0.0628,0.0647,0.0646,0.0648,0.0705,0.0729,0.0704,0.0596,0,0,0,0,0.0351,0.0373,0.0395,0.0447,0.0496,0.0541,0.0604,0.0614,0.0655,0.0667,0.0674,0.0688,0.0672,0.0647,0.0673,0.0673,0.0673,0.0673,0.0674,0.0345,0.0384,0.043,0.0479,0.0509,0.0569,0.0598,0.0616,0.0634,0.0644,0.0686,0.0655,0.0627,0.0651,0.0651,0.0651,0.0652,0.0652,0.0652,0.0387,0.042,0.0453,0.0517,0.0546,0.0579,0.0602,0.0629,0.0644,0.066,0.0642,0.0648,0.0653,0.0653,0.0653,0.0653,0.0652,0.0652,0.0652,0.0391,0.041,0.0461,0.0533,0.0584,0.0616,0.0648,0.0672,0.0672,0.0685,0.0635,0.0661,0.0684,0.0673,0.0673,0.0673,0.0673,0.0673,0.0673,0.0376,0.0421,0.0479,0.0556,0.0607,0.0659,0.0696,0.0687,0.0678,0.0658,0.0695,0.0662,0.0661,0.0684,0.0673,0.0673,0.0673,0.0673,0.0673,0.0387,0.0408,0.0483,0.0547,0.0655,0.0686,0.0721,0.0664,0.064,0.0601,0.0621,0.0623,0.0608,0.0608,0.0628,0.0601,0.0601,0.06,0,0.0377,0.0398,0.0491,0.058,0.0647,0.0705,0.067,0.0643,0.0601,0.0599,0.0638,0.0664,0.0665,0.065,0.065,0.0674,0,0,0,0.0382,0.041,0.0469,0.0564,0.0655,0.0644,0.0654,0.0625,0.0623,0.056,0.0586,0.059,0.0637,0.0672,0.0654,0.0653,0.0688,0,0]}]]